CAPE
18 0 0 2 0 0 0 0 0 0 0 0 0 0 0 0 5 0 0 104 262 161 114 63 88 47 1 0 0 0 4 74 120 113 103 147 46 119 130 184 167 53 27 22
0 0 8 8 9 0 0 0 0 0 1 0 0 0 0 0 6 9 18 107 244 185 139 180 97 51 16 34 18 11 76 114 122 88 68 171 227 266 318 325 378 289 176 144
0 0 22 6 0 0 0 0 0 0 5 0 0 0 0 0 0 30 45 203 221 244 337 304 228 105 55 19 20 19 34 109 203 254 288 287 261 278 244 303 371 364 341 355
0 1 0 0 0 7 0 0 0 0 0 0 0 0 0 0 4 24 29 288 393 315 250 197 106 75 85 11 44 58 2 65 132 328 317 305 297 278 298 332 332 293 299 312
0 0 0 0 0 4 0 0 0 0 0 0 0 0 2 0 0 24 14 42 255 279 241 87 48 92 40 16 26 7 3 30 7 165 254 316 335 337 408 422 359 339 315 314
0 0 0 0 0 0 0 1 0 8 17 0 0 0 0 0 4 13 35 17 50 124 197 76 29 129 49 0 2 6 18 32 68 60 120 116 170 164 213 298 271 209 138 132
0 0 0 0 0 1 18 16 0 0 0 0 0 0 0 0 5 3 26 41 23 50 91 107 101 254 143 9 10 71 22 17 94 63 99 87 143 128 170 175 141 116 101 94
0 0 0 0 0 0 0 19 0 0 0 0 0 0 0 0 0 5 13 28 21 5 9 32 72 342 90 63 99 169 124 20 9 61 92 123 176 107 168 151 91 71 58 71
0 0 0 0 0 10 6 20 0 0 2 0 3 0 0 0 0 0 0 17 2 2 4 15 25 22 27 56 144 195 117 39 38 98 82 62 86 163 96 45 24 61 48 30
0 0 0 0 1 25 21 7 0 0 0 0 0 0 0 0 0 0 0 0 0 10 11 6 4 2 6 11 18 164 188 188 136 133 82 72 71 112 135 131 144 54 27 76
0 0 0 0 0 0 0 0 0 0 0 0 0 0 1 0 0 0 0 0 0 0 0 2 2 0 0 12 18 7 74 155 148 174 161 156 142 107 161 146 57 21 38 78
0 0 0 0 0 0 0 0 0 0 0 0 0 0 0 0 0 0 0 0 0 0 0 0 3 0 0 11 41 1 0 7 65 318 388 405 473 492 364 349 328 278 493 265
0 0 0 0 0 0 0 0 0 0 0 0 0 3 1 0 0 0 0 0 0 0 0 0 0 4 5 12 5 13 4 2 136 318 251 249 303 395 451 428 455 374 438 300
0 0 0 0 0 0 0 0 0 0 0 0 0 6 0 0 0 0 0 0 0 0 0 0 0 0 0 0 0 0 0 3 91 145 212 255 279 201 258 232 233 227 241 180
0 0 0 0 0 0 0 0 0 0 0 0 0 0 0 0 0 0 0 0 0 0 0 0 0 0 0 0 0 0 0 0 2 27 5 6 11 44 84 74 48 59 62 24
0 0 0 0 0 0 0 0 0 0 0 0 0 0 3 0 0 0 0 0 0 0 0 0 0 0 0 0 0 0 0 0 0 0 0 0 25 51 48 15 4 0 0 0
0 0 0 0 0 0 0 0 0 0 0 0 0 0 0 0 0 0 0 0 0 0 0 0 0 0 0 0 0 0 0 0 0 1 0 0 14 29 22 15 9 0 0 1
0 0 0 0 0 0 0 0 0 0 0 0 0 0 0 2 4 0 0 0 0 0 0 0 0 0 0 0 0 0 0 0 0 0 5 15 21 18 13 5 0 0 0 0
0 0 0 0 0 0 0 0 0 0 0 0 0 0 0 0 6 1 0 0 0 0 0 0 0 0 0 0 0 0 0 0 0 0 0 0 0 0 0 0 0 0 0 0
0 0 0 0 0 0 0 0 0 0 0 0 0 0 0 0 4 8 0 0 0 0 0 0 0 0 0 0 0 0 0 0 0 0 0 0 0 0 0 0 0 0 0 0
0 0 0 0 0 0 0 0 0 0 0 0 0 0 0 0 0 0 0 0 0 0 0 0 0 0 0 0 0 0 0 0 0 0 0 0 0 0 0 0 0 0 0 0
0 0 0 0 0 0 0 0 0 0 0 0 0 0 0 0 0 0 0 0 0 0 0 0 0 0 0 0 0 0 0 0 0 0 0 0 0 0 0 0 0 0 0 0
0 0 0 0 0 0 0 0 0 0 0 0 0 0 0 0 0 0 0 0 0 0 0 0 2 0 0 0 0 0 0 0 0 0 0 0 0 0 0 0 0 0 0 0
0 0 0 0 0 0 0 0 0 0 0 0 0 0 0 0 0 0 0 0 0 0 0 0 0 6 0 0 0 0 0 0 0 0 0 0 0 0 0 0 0 0 0 0
0 0 0 0 0 0 0 0 0 0 0 0 0 0 0 0 0 0 0 0 0 0 0 0 0 0 0 0 0 0 0 0 0 0 0 0 0 0 0 0 0 0 0 0
0 0 0 0 0 0 0 0 0 0 0 0 0 0 0 0 0 0 0 0 0 0 0 3 0 0 0 0 0 0 0 2 3 0 0 0 0 0 0 0 2 9 12 8
CIN
-19 -0 -0 -1 -0 -0 -0 -0 -0 -0 -0 -0 -0 -0 -0 -0 -0 -0 -0 -9 -41 -66 -19 -72 -34 -56 -102 -0 -0 -0 -10 -8 -12 -12 -5 -19 -20 -16 -23 -31 -41 -73 -101 -117
-0 -0 -0 -3 -6 -0 -0 -0 -0 -0 -7 -0 -0 -0 -0 -0 -1 -1 -53 -28 -29 -28 -25 -32 -77 -97 -45 -5 -0 -83 -24 -11 -62 -65 -0 -4 -3 -8 -14 -15 -7 -8 -15 -45
-0 -0 -0 -1 -0 -0 -0 -0 -0 -0 -6 -0 -0 -0 -0 -0 -0 -0 -13 -17 -13 -41 -27 -13 -3 -6 -8 -9 -39 -43 -0 -9 -20 -35 -34 -29 -8 -0 -4 -0 -0 -1 -10 -8
-0 -4 -0 -0 -0 -1 -0 -0 -0 -0 -0 -0 -0 -0 -0 -0 -0 -1 -25 -30 -43 -52 -43 -36 -29 -6 -4 -29 -20 -0 -2 -0 -1 -10 -9 -14 -8 -4 -12 -21 -23 -18 -16 -20
-0 -0 -0 -0 -0 -5 -0 -0 -0 -0 -0 -0 -0 -0 -0 -0 -0 -1 -29 -71 -48 -41 -60 -28 -78 -68 -48 -29 -25 -0 -0 -4 -0 -5 -29 -35 -43 -39 -8 -3 -8 -12 -16 -11
-0 -0 -0 -0 -0 -0 -0 -7 -0 -2 -0 -0 -0 -0 -0 -0 -0 -0 -3 -51 -52 -84 -50 -99 -95 -53 -45 -0 -89 -18 -71 -45 -16 -8 -21 -38 -42 -58 -58 -45 -40 -44 -50 -46
-0 -0 -0 -0 -0 -4 -2 -2 -0 -0 -0 -0 -0 -0 -0 -0 -1 -5 -0 -8 -32 -49 -85 -74 -77 -24 -40 -57 -18 -45 -66 -50 -11 -5 -30 -30 -63 -108 -64 -77 -133 -157 -205 -171
-0 -0 -0 -0 -0 -0 -7 -4 -0 -0 -0 -0 -0 -0 -0 -0 -0 -1 -23 -4 -0 -29 -15 -28 -67 -7 -78 -50 -34 -22 -34 -120 -76 -60 -49 -25 -22 -49 -36 -102 -127 -188 -222 -253
-0 -0 -0 -0 -0 -7 -11 -6 -0 -0 -6 -0 -0 -0 -0 -0 -0 -0 -3 -0 -12 -5 -21 -12 -12 -15 -13 -47 -49 -23 -33 -59 -30 -42 -41 -41 -29 -11 -23 -88 -80 -168 -216 -178
-0 -0 -0 -0 -0 -4 -7 -11 -0 -0 -0 -0 -0 -0 -0 -0 -0 -0 -0 -0 -0 -19 -0 -5 -7 -3 -35 -19 -56 -57 -44 -33 -55 -63 -49 -47 -59 -12 -30 -33 -44 -125 -267 -220
-0 -0 -0 -0 -0 -0 -5 -0 -0 -0 -0 -0 -0 -0 -2 -0 -0 -0 -0 -0 -0 -0 -0 -1 -3 -0 -0 -2 -2 -12 -109 -53 -44 -39 -52 -62 -54 -55 -48 -36 -54 -194 -65 -69
-0 -0 -0 -0 -0 -0 -0 -0 -0 -0 -0 -0 -0 -0 -0 -0 -0 -0 -0 -0 -0 -0 -0 -0 -8 -0 -0 -2 -2 -10 -0 -91 -69 -27 -47 -51 -49 -25 -44 -64 -58 -63 -15 -40
-0 -0 -0 -0 -0 -0 -0 -0 -0 -0 -0 -0 -0 -15 -0 -0 -0 -0 -0 -0 -0 -0 -0 -0 -0 -23 -15 -7 -3 -1 -0 -45 -93 -47 -65 -83 -70 -61 -41 -47 -33 -39 -31 -67
-0 -0 -0 -0 -0 -0 -0 -0 -0 -0 -0 -0 -0 -2 -0 -0 -0 -0 -0 -0 -0 -0 -0 -0 -0 -0 -0 -0 -0 -0 -0 -109 -83 -93 -64 -45 -24 -55 -64 -69 -57 -81 -72 -74
-0 -0 -0 -0 -0 -0 -0 -0 -0 -0 -0 -0 -0 -0 -0 -0 -0 -0 -0 -0 -0 -0 -0 -0 -0 -0 -0 -0 -0 -0 -0 -0 -15 -34 -28 -62 -59 -61 -84 -92 -80 -82 -86 -113
-0 -0 -0 -0 -0 -0 -0 -0 -0 -0 -0 -0 -0 -0 -2 -0 -0 -0 -0 -0 -0 -0 -0 -0 -0 -0 -0 -0 -0 -0 -0 -0 -0 -0 -0 -0 -24 -34 -84 -99 -21 -0 -0 -0
-0 -0 -0 -0 -0 -0 -0 -0 -0 -0 -0 -0 -0 -0 -0 -0 -0 -0 -0 -0 -0 -0 -0 -0 -0 -0 -0 -0 -0 -0 -0 -0 -0 -2 -0 -2 -11 -15 -18 -17 -26 -0 -0 -0
-0 -0 -0 -0 -0 -0 -0 -0 -0 -0 -0 -0 -0 -0 -0 -0 -0 -0 -0 -0 -0 -0 -0 -0 -0 -0 -0 -0 -0 -0 -0 -0 -0 -0 -17 -15 -13 -14 -12 -7 -0 -0 -0 -0
-0 -0 -0 -0 -0 -0 -0 -0 -0 -0 -0 -0 -0 -0 -0 -0 -0 -0 -0 -0 -0 -0 -0 -0 -0 -0 -0 -0 -0 -0 -0 -0 -0 -0 -0 -0 -0 -0 -0 -0 -0 -0 -0 -0
-0 -0 -0 -0 -0 -0 -0 -0 -0 -0 -0 -0 -0 -0 -0 -0 -3 -2 -0 -0 -0 -0 -0 -0 -0 -0 -0 -0 -0 -0 -0 -0 -0 -0 -0 -0 -0 -0 -0 -0 -0 -0 -0 -0
-0 -0 -0 -0 -0 -0 -0 -0 -0 -0 -0 -0 -0 -0 -0 -0 -0 -0 -0 -0 -0 -0 -0 -0 -0 -0 -0 -0 -0 -0 -0 -0 -0 -0 -0 -0 -0 -0 -0 -0 -0 -0 -0 -0
-0 -0 -0 -0 -0 -0 -0 -0 -0 -0 -0 -0 -0 -0 -0 -0 -0 -0 -0 -0 -0 -0 -0 -0 -0 -0 -0 -0 -0 -0 -0 -0 -0 -0 -0 -0 -0 -0 -0 -0 -0 -0 -0 -0
-0 -0 -0 -0 -0 -0 -0 -0 -0 -0 -0 -0 -0 -0 -0 -0 -0 -0 -0 -0 -0 -0 -0 -0 -0 -0 -0 -0 -0 -0 -0 -0 -0 -0 -0 -0 -0 -0 -0 -0 -0 -0 -0 -0
-0 -0 -0 -0 -0 -0 -0 -0 -0 -0 -0 -0 -0 -0 -0 -0 -0 -0 -0 -0 -0 -0 -0 -0 -0 -0 -0 -0 -0 -0 -0 -0 -0 -0 -0 -0 -0 -0 -0 -0 -0 -0 -0 -0
-0 -0 -0 -0 -0 -0 -0 -0 -0 -0 -0 -0 -0 -0 -0 -0 -0 -0 -0 -0 -0 -0 -0 -0 -0 -0 -0 -0 -0 -0 -0 -0 -0 -0 -0 -0 -0 -0 -0 -0 -0 -0 -0 -0
-0 -0 -0 -0 -0 -0 -0 -0 -0 -0 -0 -0 -0 -0 -0 -0 -0 -0 -0 -0 -0 -0 -0 -0 -0 -0 -0 -0 -0 -0 -0 -4 -6 -7 -0 -0 -0 -0 -0 -0 -7 -7 -4 -3
Wind_Speed
nan nan nan nan nan nan nan nan nan nan nan nan nan nan nan nan nan nan nan 27 37 41 24 nan nan nan nan nan nan nan nan nan 59 59 55 57 nan 52 51 52 46 nan nan nan
nan nan nan nan nan nan nan nan nan nan nan nan nan nan nan nan nan nan nan 36 32 48 18 24 nan nan nan nan nan nan nan 27 49 nan nan 54 55 54 50 46 43 46 45 46
nan nan nan nan nan nan nan nan nan nan nan nan nan nan nan nan nan nan nan 33 31 33 40 28 23 44 nan nan nan nan nan 31 38 67 70 71 62 60 59 55 52 50 51 50
nan nan nan nan nan nan nan nan nan nan nan nan nan nan nan nan nan nan nan 35 32 33 35 31 26 nan nan nan nan nan nan nan 41 50 67 62 58 57 57 57 56 55 56 56
nan nan nan nan nan nan nan nan nan nan nan nan nan nan nan nan nan nan nan nan 29 35 35 nan nan nan nan nan nan nan nan nan nan 50 42 48 52 55 64 62 60 57 59 61
nan nan nan nan nan nan nan nan nan nan nan nan nan nan nan nan nan nan nan nan nan 28 27 nan nan 35 nan nan nan nan nan nan nan nan 52 41 51 48 45 63 60 55 53 51
nan nan nan nan nan nan nan nan nan nan nan nan nan nan nan nan nan nan nan nan nan nan nan 27 29 35 34 nan nan nan nan nan nan nan nan nan 39 50 49 56 59 52 55 nan
nan nan nan nan nan nan nan nan nan nan nan nan nan nan nan nan nan nan nan nan nan nan nan nan nan 23 nan nan nan 15 4 nan nan nan nan 43 45 47 38 51 nan nan nan nan
nan nan nan nan nan nan nan nan nan nan nan nan nan nan nan nan nan nan nan nan nan nan nan nan nan nan nan nan 14 16 8 nan nan nan nan nan nan 31 nan nan nan nan nan nan
nan nan nan nan nan nan nan nan nan nan nan nan nan nan nan nan nan nan nan nan nan nan nan nan nan nan nan nan nan 23 18 15 11 14 nan nan nan 15 16 17 16 nan nan nan
nan nan nan nan nan nan nan nan nan nan nan nan nan nan nan nan nan nan nan nan nan nan nan nan nan nan nan nan nan nan nan 22 18 18 16 14 17 21 26 20 nan nan nan nan
nan nan nan nan nan nan nan nan nan nan nan nan nan nan nan nan nan nan nan nan nan nan nan nan nan nan nan nan nan nan nan nan nan 33 34 28 30 31 32 30 29 31 30 33
nan nan nan nan nan nan nan nan nan nan nan nan nan nan nan nan nan nan nan nan nan nan nan nan nan nan nan nan nan nan nan nan 34 37 38 38 36 38 40 37 36 36 36 36
nan nan nan nan nan nan nan nan nan nan nan nan nan nan nan nan nan nan nan nan nan nan nan nan nan nan nan nan nan nan nan nan nan 41 41 43 37 39 40 42 39 37 37 36
nan nan nan nan nan nan nan nan nan nan nan nan nan nan nan nan nan nan nan nan nan nan nan nan nan nan nan nan nan nan nan nan nan nan nan nan nan nan nan nan nan nan nan nan
nan nan nan nan nan nan nan nan nan nan nan nan nan nan nan nan nan nan nan nan nan nan nan nan nan nan nan nan nan nan nan nan nan nan nan nan nan nan nan nan nan nan nan nan
nan nan nan nan nan nan nan nan nan nan nan nan nan nan nan nan nan nan nan nan nan nan nan nan nan nan nan nan nan nan nan nan nan nan nan nan nan nan nan nan nan nan nan nan
nan nan nan nan nan nan nan nan nan nan nan nan nan nan nan nan nan nan nan nan nan nan nan nan nan nan nan nan nan nan nan nan nan nan nan nan nan nan nan nan nan nan nan nan
nan nan nan nan nan nan nan nan nan nan nan nan nan nan nan nan nan nan nan nan nan nan nan nan nan nan nan nan nan nan nan nan nan nan nan nan nan nan nan nan nan nan nan nan
nan nan nan nan nan nan nan nan nan nan nan nan nan nan nan nan nan nan nan nan nan nan nan nan nan nan nan nan nan nan nan nan nan nan nan nan nan nan nan nan nan nan nan nan
nan nan nan nan nan nan nan nan nan nan nan nan nan nan nan nan nan nan nan nan nan nan nan nan nan nan nan nan nan nan nan nan nan nan nan nan nan nan nan nan nan nan nan nan
nan nan nan nan nan nan nan nan nan nan nan nan nan nan nan nan nan nan nan nan nan nan nan nan nan nan nan nan nan nan nan nan nan nan nan nan nan nan nan nan nan nan nan nan
nan nan nan nan nan nan nan nan nan nan nan nan nan nan nan nan nan nan nan nan nan nan nan nan nan nan nan nan nan nan nan nan nan nan nan nan nan nan nan nan nan nan nan nan
nan nan nan nan nan nan nan nan nan nan nan nan nan nan nan nan nan nan nan nan nan nan nan nan nan nan nan nan nan nan nan nan nan nan nan nan nan nan nan nan nan nan nan nan
nan nan nan nan nan nan nan nan nan nan nan nan nan nan nan nan nan nan nan nan nan nan nan nan nan nan nan nan nan nan nan nan nan nan nan nan nan nan nan nan nan nan nan nan
nan nan nan nan nan nan nan nan nan nan nan nan nan nan nan nan nan nan nan nan nan nan nan nan nan nan nan nan nan nan nan nan nan nan nan nan nan nan nan nan nan nan nan nan
Wind_Direction
nan nan nan nan nan nan nan nan nan nan nan nan nan nan nan nan nan nan nan 210 244 236 206 nan nan nan nan nan nan nan nan nan 214 216 225 229 nan 228 229 227 232 nan nan nan
nan nan nan nan nan nan nan nan nan nan nan nan nan nan nan nan nan nan nan 217 226 238 231 198 nan nan nan nan nan nan nan 226 232 nan nan 220 223 226 231 234 235 240 244 246
nan nan nan nan nan nan nan nan nan nan nan nan nan nan nan nan nan nan nan 215 209 236 251 250 218 233 nan nan nan nan nan 239 242 224 219 221 219 220 224 226 229 232 238 240
nan nan nan nan nan nan nan nan nan nan nan nan nan nan nan nan nan nan nan 223 237 248 249 249 243 nan nan nan nan nan nan nan 209 241 227 223 223 227 224 226 228 231 235 238
nan nan nan nan nan nan nan nan nan nan nan nan nan nan nan nan nan nan nan nan 223 241 256 nan nan nan nan nan nan nan nan nan nan 213 212 218 219 219 223 225 228 230 234 237
nan nan nan nan nan nan nan nan nan nan nan nan nan nan nan nan nan nan nan nan nan 231 236 nan nan 242 nan nan nan nan nan nan nan nan 209 221 221 218 222 228 227 231 231 242
nan nan nan nan nan nan nan nan nan nan nan nan nan nan nan nan nan nan nan nan nan nan nan 230 236 245 248 nan nan nan nan nan nan nan nan nan 225 220 225 230 224 223 229 nan
nan nan nan nan nan nan nan nan nan nan nan nan nan nan nan nan nan nan nan nan nan nan nan nan nan 246 nan nan nan 262 244 nan nan nan nan 233 234 229 245 241 nan nan nan nan
nan nan nan nan nan nan nan nan nan nan nan nan nan nan nan nan nan nan nan nan nan nan nan nan nan nan nan nan 263 308 254 nan nan nan nan nan nan 247 nan nan nan nan nan nan
nan nan nan nan nan nan nan nan nan nan nan nan nan nan nan nan nan nan nan nan nan nan nan nan nan nan nan nan nan 259 290 286 265 280 nan nan nan 222 280 282 264 nan nan nan
nan nan nan nan nan nan nan nan nan nan nan nan nan nan nan nan nan nan nan nan nan nan nan nan nan nan nan nan nan nan nan 255 255 283 272 288 275 289 288 267 nan nan nan nan
nan nan nan nan nan nan nan nan nan nan nan nan nan nan nan nan nan nan nan nan nan nan nan nan nan nan nan nan nan nan nan nan nan 256 261 257 256 255 261 255 254 261 265 261
nan nan nan nan nan nan nan nan nan nan nan nan nan nan nan nan nan nan nan nan nan nan nan nan nan nan nan nan nan nan nan nan 237 240 246 243 246 248 252 253 251 252 249 251
nan nan nan nan nan nan nan nan nan nan nan nan nan nan nan nan nan nan nan nan nan nan nan nan nan nan nan nan nan nan nan nan nan 247 248 246 243 248 250 251 249 252 256 255
nan nan nan nan nan nan nan nan nan nan nan nan nan nan nan nan nan nan nan nan nan nan nan nan nan nan nan nan nan nan nan nan nan nan nan nan nan nan nan nan nan nan nan nan
nan nan nan nan nan nan nan nan nan nan nan nan nan nan nan nan nan nan nan nan nan nan nan nan nan nan nan nan nan nan nan nan nan nan nan nan nan nan nan nan nan nan nan nan
nan nan nan nan nan nan nan nan nan nan nan nan nan nan nan nan nan nan nan nan nan nan nan nan nan nan nan nan nan nan nan nan nan nan nan nan nan nan nan nan nan nan nan nan
nan nan nan nan nan nan nan nan nan nan nan nan nan nan nan nan nan nan nan nan nan nan nan nan nan nan nan nan nan nan nan nan nan nan nan nan nan nan nan nan nan nan nan nan
nan nan nan nan nan nan nan nan nan nan nan nan nan nan nan nan nan nan nan nan nan nan nan nan nan nan nan nan nan nan nan nan nan nan nan nan nan nan nan nan nan nan nan nan
nan nan nan nan nan nan nan nan nan nan nan nan nan nan nan nan nan nan nan nan nan nan nan nan nan nan nan nan nan nan nan nan nan nan nan nan nan nan nan nan nan nan nan nan
nan nan nan nan nan nan nan nan nan nan nan nan nan nan nan nan nan nan nan nan nan nan nan nan nan nan nan nan nan nan nan nan nan nan nan nan nan nan nan nan nan nan nan nan
nan nan nan nan nan nan nan nan nan nan nan nan nan nan nan nan nan nan nan nan nan nan nan nan nan nan nan nan nan nan nan nan nan nan nan nan nan nan nan nan nan nan nan nan
nan nan nan nan nan nan nan nan nan nan nan nan nan nan nan nan nan nan nan nan nan nan nan nan nan nan nan nan nan nan nan nan nan nan nan nan nan nan nan nan nan nan nan nan
nan nan nan nan nan nan nan nan nan nan nan nan nan nan nan nan nan nan nan nan nan nan nan nan nan nan nan nan nan nan nan nan nan nan nan nan nan nan nan nan nan nan nan nan
nan nan nan nan nan nan nan nan nan nan nan nan nan nan nan nan nan nan nan nan nan nan nan nan nan nan nan nan nan nan nan nan nan nan nan nan nan nan nan nan nan nan nan nan
nan nan nan nan nan nan nan nan nan nan nan nan nan nan nan nan nan nan nan nan nan nan nan nan nan nan nan nan nan nan nan nan nan nan nan nan nan nan nan nan nan nan nan nan